sat.trackr.live / text

‹ back to catalog

STARLINK-4772

NORAD 53932 · 2022-119AY

PAYLOAD ACTIVE UNKNOWN

§ Identity

Operator
Country
US
Launch date
2022-09-24
Launch site
AFETR
Launch vehicle
Mass (kg)
RCS (m²)

Purposes: comms

External: N2YO · Heavens-Above · Gunter

§ Orbital elements

Epoch: 2026-09-20T23:06:28.610496Z

Period
95.44 min
Inclination
53.1605°
Eccentricity
0.0001772
Mean motion
15.08831182 rev/d
Perigee alt
538.5 km
Apogee alt
541.0 km
Semi-major
6,917.9 km
B*
-1.7099e-5
RAAN
141.9295°
Arg perigee
88.2947°
Mean anomaly
271.8247°
Rev number
22,152

§ Raw data

STARLINK-47721 53932U 22119AY  26263.96283114 -.00000560  00000+0 -17099-4 0  99922 53932  53.1605 141.9295 0001772  88.2947 271.8247 15.08831182221520

JSON: /api/v1/satellites/53932 · /tle

For live sub-satellite position, see the globe view (requires WebGL).

§ Visibility from observer

Set your observer location to see the next 7 days of passes ≥ 10°. The values pass through the URL so the page stays shareable.

No JS? Fill the form by hand. The geolocation button needs JavaScript.